Simultaneous Nadir Overpasses (SNOs) Predictions

Prediction of SNOs between AQUA and METOP-A Satellite Orbit:

Table of predicted SNOs for the next 14.0 days since TLE Epoch: 1/23/2021
Index Date (AQUA) Time (AQUA) Lat,Lon (AQUA) SZA (AQUA ) Date (METOP-A) Time (METOP-A) Lat,Lon (METOP-A) SZA (METOP-A ) Distance(km) Time Diff (sec)
1 01/24/2021 05:13:45 -76.98, -92.96 83.38 01/24/2021 05:12:35 -76.96, -92.90 83.38 2.32 70
2 01/24/2021 06:03:12 76.99, 74.65 96.63 01/24/2021 06:03:14 77.00, 74.59 96.65 2.35 2
3 01/24/2021 06:52:41 -77.11,-118.18 83.23 01/24/2021 06:53:53 -77.12,-117.61 83.28 14.25 72
4 01/27/2021 00:48:01 -77.00, -26.58 84.05 01/27/2021 00:46:56 -76.99, -26.45 84.05 3.29 65
5 01/27/2021 01:37:28 77.01, 141.01 95.96 01/27/2021 01:37:35 77.02, 141.02 95.98 1.86 7
6 01/27/2021 02:27:01 -77.31, -52.53 83.68 01/27/2021 02:28:10 -77.32, -50.44 83.83 50.95 69
7 01/29/2021 20:22:17 -76.97, 39.95 84.82 01/29/2021 20:21:19 -76.97, 39.81 84.79 3.49 58
8 01/29/2021 21:11:45 77.03,-152.65 95.25 01/29/2021 21:11:57 77.05,-152.55 95.26 2.90 12
9 01/29/2021 22:01:23 -77.56, 12.90 84.12 01/29/2021 22:02:27 -77.56, 16.94 84.39 96.71 64
10 02/01/2021 15:56:34 -77.00, 106.28 85.57 02/01/2021 15:55:41 -76.99, 106.23 85.56 1.36 53
11 02/01/2021 16:46:01 77.02, -86.15 94.45 02/01/2021 16:46:20 77.02, -86.30 94.46 3.80 19
12 02/04/2021 11:30:50 -77.03, 172.60 86.36 02/04/2021 11:30:02 -77.01, 172.66 86.36 2.27 48
13 02/04/2021 12:20:17 77.05, -19.85 93.67 02/04/2021 12:20:41 77.04, -19.89 93.66 1.43 24



Historial Predications of SNOs between AQUA and METOP-A
